TITAN 3C TRANSTAGE DEB, 43283

Orbit data source: Space-Track

TITAN 3C TRANSTAGE DEB, 43283 is space debris in GEO originally from a launch on Sun, 09 Feb 1969 UTC launched from the Air Force Eastern Test Range (AFETR). Debris objects in space refer to the collection of defunct objects orbiting the Earth. Examples of debris include non-operational satellites, rocket bodies, and fragments generated from explosions, collisions, or faulty payload assembly.

Not visible in the next 10 days
Identifier
43283, 1969-013D
Orbit
GEO
Country
Flag of USUS
Related business
Manufacturer
Martin Marietta
Mission
Spacecraft
Bus & Motor
Unknown
Mass
Unknown
Launch date (UTC)
1969-02-09 (57 years ago)
Launch vehicle
Unknown
Launch site
Air Force Eastern Test Range (AFETR)
Object type
Payload
Rocket body
Debris
Shape & HBR
Unknown shape, 1.1 m
Radar Cross Section
RCS unknown

Expand to show TLE details & history
Last TLE update: 14 hours ago

TLE from 14 hours ago
0 TITAN 3C TRANSTAGE DEB
1 43283U 69013D   25305.58131467 -.00000095  00000-0  00000-0 0  9994
2 43283   0.8122  98.1890 0341336 133.0222 125.7249  0.93096808 25968
Epoch: 2025-11-01T13:57Z
TLE epoch observation values (Epoch: 2025-11-01T13:57:05.587Z)
Latitude
-0.7836°
Longitude
109.61648°
Altitude
38,847.488 km
Speed
2.938 km/s
True Right ascension
23h 59m 59s
True Declination
0° 46' 58"
Sunlit
Object was in daylight at epoch
Visualization orbit readout
Latitude
Unknown
Longitude
Unknown
Altitude
Unknown
Speed
Unknown
Apparent Right ascension
Unknown
Apparent Declination
Unknown
Sunlit
N/A
Visualization observer readout
Local Sidereal Time
23:26:51
Azimuth
Unknown
Elevation
Unknown
Doppler factor
Unknown
Orbital elements
Apogee altitude
39,439.426 km
Perigee altitude
36,414.83 km
Semi-major axis
44,305.265 km
Eccentricity
0.03413
Inclination
0.8122°
RAAN
98.189°
Arg. of periapsis
133.0222°
True anomaly
128.82155°
Mean anomaly
125.7249°
Eccentric anomaly
127.28101°
Mean motion
0.23273 °/min
Orbital period
1,546.83 mins
BSTAR
0
Loading maneuver chart data...
Computing Atmospheric mass density...

Documentation

Showing up to 5 results
|